#timestamp,LO_Frequency,Hit,StdDev 
1583910015.6,286046982.1,N
1583910035.4,286046980.3,N
1583910055.2,286046971.4,Y
1583910075.1,286046976.4,P
1583910076.0,286046976.4,N
1583910095.8,286046978.2,N
1583910115.7,286046979.1,N
1583910135.5,286046984.6,N
1583910155.3,286046994.6,N
1583910175.2,286046998.8,N
1583910195.0,286047002.1,N
1583910195.9,286047002.1,N
1583910215.8,286046997.2,N
1583910235.6,286046996.7,N
1583910255.4,286046992.3,N
1583910275.3,286046987.9,N
1583910295.1,286046982.8,N
1583910315.8,286046989.9,N
1583910335.7,286046996.0,N
1583910355.5,286046998.9,N
1583910375.4,286046996.4,N
1583910395.2,286046993.2,N
1583910415.0,286046993.4,N
1583910415.9,286046993.4,N
1583910435.8,286046995.5,N
1583910455.6,286046998.9,N
1583910475.5,286046999.9,N
1583910495.3,286046998.4,N
1583910515.1,286046996.5,N
1583910535.9,286046995.7,N
1583910555.7,286046995.8,N
1583910575.6,286046995.7,N
1583910595.4,286046996.4,N
1583910615.2,286046987.4,N
1583910635.1,286046987.8,N
1583910636.0,286046987.8,N
1583910655.8,286046991.9,N
1583910675.6,286046997.9,N
1583910695.5,286046998.7,N
1583910715.3,286047000.4,N
1583910735.2,286047000.3,N
1583910755.9,286046999.2,N
1583910775.7,286046998.3,N
1583910795.6,286046998.8,N
1583910815.4,286047002.8,N
1583910835.2,286047001.1,N
1583910855.1,286047004.8,N
1583910856.0,286047004.8,N
1583910875.8,286047003.8,N
1583910895.7,286047001.3,N
1583910915.5,286047003.2,N
1583910935.3,286047006.7,N
1583910955.2,286047012.7,N
1583910975.0,286047008.8,N
1583910975.9,286047008.8,N
1583910995.7,286046996.6,N
1583911015.6,286046991.6,N
1583911035.4,286046988.8,N
1583911055.3,286046990.3,N
1583911075.1,286046982.3,N
1583911095.8,286046984.2,N
1583911115.7,286046989.8,N
1583911135.5,286046992.4,N
1583911155.3,286046990.5,N
1583911175.2,286046993.1,N
1583911195.0,286046988.5,N
1583911195.9,286046988.5,N
1583911215.8,286046988.2,N
1583911235.6,286046985.9,N
1583911255.5,286046989.1,N
1583911275.3,286046994.7,N
1583911295.1,286046996.5,N
1583911315.9,286046993.3,N
1583911335.7,286046988.0,N
1583911355.6,286046981.3,N
1583911375.4,286046978.5,N
1583911395.2,286046978.9,N
1583911415.1,286046979.5,N
1583911416.0,286046979.5,N
1583911435.8,286046974.0,N
1583911455.7,286046968.7,Y
1583911475.5,286046975.0,P
1583911495.3,286046972.6,P
1583911515.2,286046983.5,N
1583911535.9,286046990.5,N
1583911555.7,286046998.2,N
1583911575.6,286046987.2,N
1583911595.4,286046983.6,N
1583911615.3,286046977.5,N
1583911635.1,286046974.8,Y
1583911636.0,286046974.8,P
1583911655.8,286046987.0,N
1583911675.7,286046986.0,N
1583911695.5,286046989.0,N
1583911715.4,286046991.4,N
1583911735.2,286046995.4,N
1583911755.0,286046993.9,N
1583911755.9,286046993.9,N
1583911775.8,286046992.4,N
1583911795.6,286046993.6,N
1583911815.4,286047000.5,N
1583911835.3,286046999.7,N
1583911855.1,286047005.7,N
1583911875.9,286047012.3,N
1583911895.7,286047010.1,N
1583911915.5,286047010.3,N
1583911935.4,286047015.1,N
1583911955.2,286047015.6,N
1583911975.0,286047022.6,N
1583911975.9,286047022.6,N
1583911995.8,286047026.2,N
1583912015.6,286047016.3,N
1583912035.5,286047016.4,N
1583912055.3,286047018.0,N
1583912075.1,286047010.7,N
1583912095.9,286047008.2,N
1583912115.7,286047021.1,N
1583912135.5,286047025.0,N
1583912155.4,286047025.0,N
1583912175.2,286047033.1,N
1583912195.0,286047017.0,N
1583912196.0,286047017.0,N
1583912215.8,286047011.3,N
1583912235.6,286047017.2,N
1583912255.5,286047018.4,N
1583912275.3,286047015.5,N
1583912295.1,286047011.6,N
1583912315.9,286047003.0,N
1583912335.7,286047007.3,N
1583912355.6,286047008.3,N
1583912375.4,286047005.9,N
1583912395.2,286047002.6,N
1583912415.1,286047001.7,N
1583912416.0,286047001.7,N
1583912435.8,286047002.3,N
1583912455.6,286046995.1,N
1583912475.5,286046993.6,N
1583912495.3,286046997.7,N
1583912515.2,286047002.1,N
1583912535.9,286047003.3,N
1583912555.7,286047007.0,N
1583912575.6,286047003.6,N
1583912595.4,286046998.6,N
1583912615.2,286046999.9,N
1583912635.1,286047000.7,N
1583912636.0,286047000.7,N
1583912655.8,286046998.6,N
1583912675.7,286046999.3,N
1583912695.1,286046997.6,N
1583912715.8,286046993.6,N
1583912735.7,286046996.6,N
1583912755.5,286046997.5,N
1583912775.3,286046994.0,N
1583912795.2,286046994.6,N
1583912815.0,286046992.3,N
1583912815.9,286046992.3,N
1583912835.8,286046998.0,N
1583912855.6,286046996.4,N
1583912875.4,286046994.1,N
1583912895.3,286046993.4,N
1583912915.1,286046994.8,N
1583912935.9,286046989.5,N
1583912955.7,286046985.7,Y
1583912975.5,286046994.6,P
1583912995.4,286046991.8,P
1583913015.2,286046998.6,N
1583913035.0,286047002.8,N
1583913035.9,286047002.8,N
1583913055.8,286046995.7,N
1583913075.6,286046994.1,N
1583913095.5,286046991.7,N
1583913115.3,286046994.2,N
1583913135.1,286046990.6,N
1583913155.9,286046989.6,N
1583913175.7,286046986.1,Y
1583913195.6,286046989.8,P
1583913215.4,286046987.9,P
1583913235.2,286046988.7,P
1583913255.1,286046988.9,Y
1583913256.0,286046988.9,P
1583913275.8,286046998.4,N
1583913295.6,286047003.9,N
1583913315.5,286047003.5,N
1583913335.3,286047006.6,N
1583913355.2,286047010.1,N
1583913375.9,286047010.0,N
1583913395.7,286047009.4,N
1583913415.6,286047006.2,N
1583913435.4,286047006.5,N
1583913455.2,286047010.0,N
1583913475.1,286047012.9,N
1583913476.0,286047012.9,N
1583913495.8,286047020.6,N
1583913515.7,286047015.0,N
1583913535.5,286047011.0,N
1583913555.3,286047010.3,N
1583913575.2,286047010.3,N
1583913595.0,286047008.7,N
1583913595.9,286047008.7,N
